Temperature
15 16 16 17 14 13 15 15 17 18 18 20 20 20 19 18 19 19 18 18 18 18 18 17 17 17 17 17 17 17 17 17 17 17 17 17 16 16 16 16 16 16 16 16 15 15 15 15 15
15 15 16 16 13 13 14 15 16 18 19 20 20 19 18 18 18 18 18 18 18 18 18 17 17 17 17 17 17 17 16 16 16 16 16 16 16 16 16 16 16 16 15 15 15 15 15 15 15
14 15 15 12 13 14 15 16 16 18 20 20 19 19 18 18 18 18 18 18 18 18 18 17 17 17 17 17 17 17 16 16 16 16 16 16 16 16 16 16 16 15 15 15 15 15 15 15 14
14 14 14 12 14 14 15 16 17 17 19 19 18 17 17 17 18 18 18 18 18 18 17 17 17 17 17 17 17 17 16 16 16 16 16 16 16 16 16 16 15 15 15 15 15 15 15 14 14
14 14 12 12 13 14 14 16 17 17 17 18 17 15 16 17 17 18 18 17 18 17 17 17 17 17 17 17 17 16 16 16 16 16 16 16 16 16 15 15 15 15 15 15 15 15 14 14 14
13 12 11 12 13 14 14 16 16 16 16 17 16 15 15 16 17 17 17 17 17 17 17 17 17 17 17 17 16 16 16 16 16 16 16 15 15 15 15 15 15 15 15 15 15 14 14 14 14
12 10 11 12 13 13 14 16 15 15 15 16 16 14 15 15 16 16 17 17 17 17 16 16 16 16 16 16 16 16 16 16 15 15 15 15 15 15 15 15 15 15 15 14 14 14 14 14 14
12 10 11 11 12 13 15 15 16 15 15 16 16 14 14 14 15 16 16 16 16 16 16 16 16 16 16 16 16 16 16 15 15 15 15 15 15 15 15 15 15 15 14 14 14 14 14 13 13
11 10 11 11 12 13 14 14 15 15 15 15 15 15 15 15 15 15 15 15 15 15 15 16 16 16 15 15 15 15 15 15 15 15 15 15 15 15 15 15 14 14 14 14 14 14 13 13 13
10 9 11 12 12 12 13 13 14 14 13 14 14 15 15 14 14 14 14 15 15 15 15 15 15 15 15 15 15 15 15 15 15 15 15 15 15 15 14 14 14 14 14 14 14 13 13 13 13
9 9 11 12 13 13 12 13 13 13 12 13 14 14 14 14 14 14 14 14 14 14 14 15 15 15 15 15 15 15 15 15 15 15 14 14 14 14 14 14 14 14 14 14 13 13 13 13 13
9 9 10 11 12 12 12 12 12 12 13 14 14 14 14 13 13 13 14 14 14 14 14 14 14 15 15 15 15 14 15 14 14 14 14 14 14 14 14 14 14 14 13 13 13 13 13 13 13
8 9 10 11 11 11 12 11 11 12 13 14 14 13 13 13 13 13 13 14 14 14 14 14 14 14 14 14 14 14 14 14 14 14 14 14 14 14 14 13 13 13 13 13 13 13 13 12 12
9 9 9 10 10 10 10 11 11 12 13 13 13 13 13 13 13 13 13 13 13 13 13 13 14 14 14 14 14 14 14 14 14 14 14 14 14 14 13 13 13 13 13 13 12 12 12 12 12
9 8 9 9 10 10 11 10 10 12 12 12 12 12 12 12 13 13 13 13 13 13 13 13 13 13 14 14 14 14 13 13 13 13 13 13 13 13 13 13 13 13 13 12 12 12 12 12 12
8 8 8 9 9 10 10 9 10 11 11 11 11 11 12 12 12 12 12 13 13 13 13 13 13 13 13 13 13 13 13 13 13 13 13 13 13 13 13 13 13 13 12 12 12 12 12 11 11
7 7 7 8 9 9 9 9 10 11 11 10 11 11 11 11 12 12 12 12 12 13 13 12 12 12 13 13 13 13 12 12 13 13 13 12 12 13 12 12 12 12 12 12 12 12 11 11 11
6 6 7 7 8 8 8 8 9 10 10 10 10 10 10 11 11 12 12 12 12 12 12 12 12 12 12 12 12 12 12 12 12 12 12 12 12 12 12 12 12 12 12 12 11 11 11 11 11
7 7 7 7 8 8 8 8 8 9 9 9 9 9 10 10 11 11 11 11 11 12 12 12 12 12 12 12 12 12 12 12 12 12 12 12 12 12 12 12 12 12 12 11 11 11 11 10 10
7 7 7 7 8 8 8 8 8 8 8 9 9 9 9 9 10 10 11 11 11 11 11 11 11 11 11 11 11 11 11 11 11 11 11 11 11 11 11 11 11 11 11 11 11 11 10 10 10
7 7 7 7 7 8 8 7 7 8 8 8 9 9 9 9 9 10 10 10 10 10 10 11 11 11 11 11 11 11 11 11 11 11 11 11 11 11 11 11 11 11 11 11 10 10 10 10 10
6 7 7 7 7 6 7 7 7 7 7 7 8 8 8 9 9 9 9 10 10 10 10 10 10 10 11 11 11 11 11 10 11 10 10 10 10 10 10 10 10 10 10 10 10 10 10 10 9
6 7 7 7 6 6 6 6 6 7 7 7 7 8 8 8 9 9 9 9 9 9 9 10 10 10 10 10 10 10 10 10 10 10 10 10 10 10 10 10 10 10 10 10 9 9 9 9 9
7 6 6 5 5 6 6 6 6 6 7 7 7 7 8 8 8 8 8 9 9 9 9 9 9 9 10 10 10 10 10 10 10 9 9 9 9 9 9 9 9 9 9 9 9 9 9 9 9
6 5 5 5 5 5 6 6 6 6 6 7 7 7 7 8 8 8 8 8 8 8 9 9 9 9 9 9 9 9 9 9 9 9 9 9 9 9 9 9 9 9 9 9 9 8 8 8 8
5 5 5 5 5 5 5 5 5 6 6 7 7 7 7 7 7 7 8 8 8 8 8 8 8 9 9 9 8 8 8 8 8 8 8 8 8 8 8 8 8 8 8 8 8 8 8 8 8
5 4 5 4 4 5 5 5 5 5 5 5 6 6 6 6 7 7 7 7 7 7 8 8 8 8 8 8 8 8 8 8 8 8 8 8 8 8 8 8 8 8 8 8 8 8 7 7 7
5 4 4 4 5 5 5 4 5 5 5 5 5 5 5 6 6 7 7 7 7 7 7 7 7 7 7 7 7 7 7 7 7 7 7 7 8 8 7 7 7 7 7 7 7 7 7 7 6
4 4 3 3 3 4 5 5 5 4 5 4 4 5 5 6 6 6 6 6 6 6 7 7 7 7 7 7 7 7 7 7 7 7 7 7 7 7 7 7 7 7 7 7 7 6 6 6 6
3 3 3 3 3 3 3 4 4 4 4 4 4 5 5 5 5 6 6 6 6 6 6 6 6 6 6 6 6 6 6 6 6 6 6 6 6 6 7 6 6 6 6 6 6 6 6 6 5
Wind_Speed
10 9 2 3 4 2 5 5 3 2 2 3 2 4 6 5 3 4 2 9 11 12 15 18 18 17 17 16 16 17 17 16 16 16 16 16 16 16 15 15 15 15 15 15 14 14 14 14 14
6 3 3 3 4 4 6 5 5 5 5 2 1 3 4 2 2 5 5 8 13 13 15 16 19 18 17 17 17 17 16 16 16 16 16 15 15 15 15 15 15 14 14 14 14 13 13 13 13
4 1 2 3 4 8 7 4 7 5 4 1 1 2 3 3 3 4 5 12 13 11 13 16 19 18 18 18 17 17 16 16 16 16 16 15 15 15 15 14 14 14 14 13 13 13 12 12 12
2 3 2 3 9 9 5 4 4 3 2 1 3 3 1 1 3 5 9 13 13 10 12 15 18 19 18 18 17 17 16 16 16 16 15 15 15 15 14 14 14 14 14 13 12 12 12 12 11
2 3 2 6 10 5 4 4 1 2 1 0 3 3 1 3 5 10 12 12 13 10 12 15 16 18 19 18 17 17 16 16 16 15 15 15 15 14 14 14 14 14 13 12 11 11 11 10 10
2 2 4 10 10 5 4 3 1 1 1 1 3 4 1 2 7 10 11 11 12 12 11 14 16 16 17 18 17 17 16 16 15 15 15 15 14 14 14 13 13 13 12 11 10 10 9 9 9
4 4 7 7 7 6 5 3 2 2 2 2 3 4 2 1 4 8 10 10 10 11 11 11 13 14 15 16 17 17 16 16 15 15 15 14 14 13 13 13 13 12 11 10 10 9 9 8 8
3 3 5 6 7 7 4 3 3 3 3 2 3 6 4 3 3 7 9 9 9 8 9 9 11 12 12 13 15 16 16 16 15 15 15 14 14 13 12 12 12 11 10 9 9 8 7 7 7
2 4 9 9 8 5 3 2 2 1 1 1 1 3 4 7 8 9 9 8 7 7 6 8 9 10 11 11 13 15 15 15 15 14 14 14 12 11 11 11 11 10 9 8 7 7 6 6 6
3 8 11 6 5 5 3 2 2 0 2 1 2 3 6 8 9 9 10 11 9 9 7 7 8 9 10 10 10 11 12 12 12 12 12 11 11 10 10 11 10 9 8 7 6 6 5 5 5
3 7 6 5 3 3 3 2 2 4 3 5 5 6 6 8 8 8 7 10 11 10 8 7 8 9 9 8 9 8 9 10 10 11 11 11 10 9 8 8 8 7 6 5 5 4 4 4 4
3 5 5 4 3 3 4 2 1 3 6 5 7 11 9 9 9 8 7 7 8 9 7 7 7 8 8 8 7 8 7 8 8 9 11 10 8 7 6 6 6 5 5 4 4 3 3 4 4
5 5 5 5 3 3 2 3 3 5 4 3 6 8 10 8 7 6 6 6 8 8 8 7 7 7 7 7 6 7 6 6 8 9 10 11 8 6 6 5 5 5 4 4 3 3 2 2 3
5 4 5 4 5 4 3 5 3 5 2 5 7 8 8 8 7 5 5 5 7 8 8 7 7 7 7 6 5 6 6 7 8 7 9 10 9 8 6 5 4 4 4 4 4 3 2 2 2
3 2 4 4 4 3 2 5 7 5 3 5 7 7 7 6 6 7 7 7 7 8 8 8 8 7 6 6 6 6 6 7 6 7 8 9 10 9 7 5 4 4 5 5 4 3 3 2 2
1 2 4 4 4 4 4 9 7 4 5 6 6 6 6 5 5 5 5 5 6 7 8 7 7 7 6 6 5 5 6 6 6 6 7 7 8 9 8 5 4 5 5 4 3 2 2 1 1
2 5 6 5 4 4 5 8 5 4 6 6 5 6 6 4 3 3 4 5 6 6 7 7 7 8 6 6 5 6 6 5 6 6 6 6 7 8 7 5 5 6 5 3 3 2 2 1 1
6 5 5 6 4 5 6 7 5 4 6 6 5 5 5 5 4 3 2 4 6 5 6 6 6 6 6 5 5 4 4 3 4 5 6 6 6 7 6 5 5 6 4 2 2 2 2 1 1
6 5 5 5 4 4 7 8 7 4 4 5 5 5 6 5 4 3 2 3 5 4 5 5 6 6 6 5 4 4 3 3 2 4 5 6 6 7 7 5 4 5 3 3 3 2 2 1 1
6 5 4 3 3 4 5 7 5 5 5 7 7 7 7 5 2 2 2 3 4 4 4 5 5 5 5 4 4 3 3 2 2 3 4 5 5 5 6 6 4 4 3 3 3 3 2 1 1
6 7 6 4 2 1 2 4 5 4 3 3 5 6 6 7 6 4 4 4 3 4 4 4 4 4 4 5 4 3 3 2 2 2 2 4 5 5 4 5 5 4 3 3 3 3 3 2 0
5 6 6 4 1 2 3 3 5 4 4 4 5 5 6 6 5 5 5 4 4 3 2 3 3 3 4 5 5 6 4 4 3 3 3 3 5 5 4 5 6 4 3 3 3 2 2 3 2
5 3 3 4 3 1 1 3 5 3 5 7 6 6 6 6 6 6 6 5 4 3 3 2 3 3 3 4 5 6 4 2 3 3 3 3 3 5 5 5 5 4 3 3 2 2 2 2 2
2 2 3 2 2 2 4 4 4 5 8 7 6 6 5 5 5 5 4 4 3 3 2 2 3 3 3 3 4 5 5 5 5 5 4 3 2 2 4 5 5 5 4 3 3 2 2 2 2
2 5 2 1 0 4 3 3 6 6 6 7 7 6 5 6 5 5 4 4 3 3 3 2 3 2 2 3 4 4 5 6 7 6 5 4 3 2 3 3 4 4 4 4 4 3 2 2 2
3 5 4 3 3 2 2 5 5 4 3 3 3 4 4 4 5 5 6 5 5 4 4 3 3 3 3 3 3 3 4 4 4 5 5 4 3 3 3 4 4 5 5 4 4 3 2 2 2
3 3 3 3 1 1 3 4 5 2 0 2 3 3 4 4 4 4 4 5 5 4 4 4 4 3 3 3 3 3 4 3 3 3 4 3 2 2 4 4 4 4 4 4 3 2 2 2 2
2 4 3 3 2 2 3 3 4 3 4 4 4 4 4 4 3 3 3 4 4 4 4 4 4 4 4 3 3 3 4 4 4 3 3 3 3 3 3 3 3 4 4 4 3 2 1 2 2
1 2 2 3 3 3 2 5 3 5 5 6 7 6 5 5 4 4 3 3 3 2 3 3 3 3 3 3 3 3 3 3 3 3 3 3 3 3 3 3 3 3 3 3 3 2 3 2 2
1 3 3 3 2 3 2 5 3 3 4 4 4 4 4 4 4 4 4 3 2 2 2 3 3 3 4 4 3 3 3 3 3 3 3 3 3 3 3 3 2 3 3 3 3 3 3 3 3
Wind_Direction
327 331 19 54 69 79 229 238 217 189 198 221 181 126 130 138 149 160 130 137 133 141 145 145 145 142 138 135 133 129 126 123 121 119 117 116 114 112 110 108 107 105 102 101 99 96 93 90 87
334 342 48 73 133 201 244 234 213 215 200 176 111 96 96 103 94 110 119 140 138 140 143 147 146 142 138 135 133 131 128 126 123 121 120 119 117 114 111 110 109 107 104 102 100 98 95 92 89
333 6 91 118 182 202 215 216 208 233 241 186 80 62 122 137 128 137 148 140 133 134 139 145 145 142 140 138 135 132 129 127 125 123 122 121 119 117 114 112 112 109 105 104 103 100 97 94 93
53 52 63 180 216 220 209 210 184 207 298 16 114 71 81 123 152 143 137 136 132 131 136 141 143 143 141 139 137 134 130 128 127 125 123 122 120 117 116 115 115 112 109 106 103 101 100 98 95
71 105 171 224 230 237 236 260 216 180 232 59 116 117 24 355 107 126 132 136 136 134 134 142 141 144 143 141 139 135 133 131 129 128 126 123 120 118 117 118 118 115 112 109 105 102 101 100 97
114 125 188 220 229 237 246 253 286 280 255 22 108 127 164 82 108 132 136 137 138 138 137 142 142 140 145 144 142 139 138 135 133 131 128 125 123 122 121 121 119 118 115 112 109 106 104 101 95
163 168 203 212 225 235 240 235 216 233 252 243 144 128 150 116 129 135 134 130 129 131 133 136 139 140 142 145 144 142 140 138 138 135 131 128 126 124 123 122 120 120 119 116 113 110 106 103 96
164 160 207 209 211 230 232 220 220 204 238 245 142 143 168 197 137 120 123 122 121 123 129 133 136 136 136 140 143 143 143 141 138 136 133 130 128 125 125 124 122 122 121 120 117 112 109 105 93
141 192 213 208 201 213 218 211 262 267 183 291 166 167 165 145 124 117 120 117 122 124 128 132 135 134 135 136 139 141 142 141 138 137 134 129 126 125 126 127 126 126 124 121 118 113 111 105 87
168 212 220 212 193 188 214 211 231 299 303 300 25 61 115 129 127 130 142 145 147 148 147 145 139 137 136 138 133 137 141 141 140 137 133 131 130 130 129 131 129 128 126 121 115 109 104 91 75
194 216 226 243 225 195 211 239 235 172 238 221 173 155 144 139 135 140 150 158 159 157 151 147 145 139 137 135 136 135 138 141 141 141 138 133 129 129 127 126 126 124 121 110 101 91 85 85 78
223 251 247 250 249 220 220 232 264 221 225 217 176 163 159 158 158 163 162 164 157 152 151 148 139 136 133 132 135 134 137 144 146 145 145 138 133 130 130 128 129 126 123 110 100 89 79 76 78
237 249 250 260 270 253 238 238 249 264 245 185 162 165 164 167 167 169 166 161 156 152 150 151 143 138 137 133 135 135 138 147 150 148 148 145 142 142 136 136 134 131 128 125 114 102 87 72 78
222 236 252 274 274 264 230 260 235 247 198 160 167 173 172 171 166 162 160 156 158 156 156 153 147 142 137 141 143 142 143 143 144 148 154 152 148 146 145 145 140 139 138 139 132 122 104 84 82
223 235 276 261 253 243 201 273 232 221 173 172 182 183 176 173 164 167 171 170 166 164 156 155 152 143 142 140 145 142 141 141 140 138 148 154 153 152 151 148 148 151 150 138 122 103 88 78 73
205 194 231 249 220 230 181 240 241 181 172 186 197 193 184 181 173 167 163 163 161 161 155 157 151 144 144 141 141 138 136 136 136 139 142 148 152 154 150 149 153 151 142 131 125 126 104 83 80
185 204 219 241 221 208 195 231 241 189 183 194 197 195 181 179 172 171 166 164 159 160 155 156 151 151 149 144 136 133 133 130 137 139 140 144 148 149 147 149 149 147 133 127 141 129 131 119 99
201 203 210 217 220 207 217 238 245 213 190 193 192 186 175 177 187 178 164 156 148 149 145 150 152 152 147 136 124 116 114 119 128 139 143 142 148 150 143 138 145 142 137 137 139 134 111 135 155
200 200 219 237 227 208 217 234 241 225 188 188 193 185 179 189 196 164 141 136 127 134 138 145 150 153 149 148 145 144 154 159 150 147 146 143 145 152 146 142 140 143 153 155 147 136 124 85 103
212 212 217 262 228 211 213 241 246 223 204 198 196 193 185 179 179 160 144 137 141 146 146 145 148 159 161 163 161 156 149 152 159 145 143 147 148 152 156 150 152 147 144 141 141 133 131 94 86
218 202 207 216 330 140 182 260 245 245 229 225 201 188 184 181 184 185 165 155 152 148 156 156 163 163 160 152 141 127 106 103 116 143 166 157 156 155 151 153 145 143 146 157 156 150 148 163 217
224 214 203 199 161 236 178 225 250 217 227 224 213 198 192 187 179 181 172 159 162 164 155 153 164 164 158 150 156 162 171 178 193 182 174 156 152 150 145 149 141 138 144 155 161 152 154 153 168
217 213 182 177 165 264 184 179 261 210 217 225 217 200 193 190 183 179 179 175 171 165 162 162 170 164 165 164 168 172 178 180 160 152 157 165 151 149 149 152 143 137 137 139 136 140 142 157 172
201 108 79 74 95 243 219 183 252 221 214 214 211 199 191 187 183 179 177 172 167 161 158 160 161 172 172 176 178 176 171 165 161 166 168 175 166 156 146 146 143 144 143 145 150 138 147 163 159
109 116 74 20 310 239 192 185 242 239 217 204 202 197 196 188 182 183 182 187 181 178 173 170 170 183 184 183 184 182 180 175 177 177 173 171 175 185 179 151 155 153 152 151 146 144 160 179 177
189 151 154 189 207 258 209 217 249 261 231 193 179 177 182 181 181 189 193 193 192 192 184 180 186 191 189 187 186 184 178 174 179 176 174 178 186 184 167 154 153 157 156 150 144 147 174 168 181
153 181 183 139 122 225 248 275 305 319 110 158 170 179 190 192 188 191 194 194 195 192 192 191 190 193 198 191 174 178 175 166 166 169 166 165 169 162 150 152 151 153 148 146 144 158 169 158 172
149 147 110 134 159 227 267 264 259 254 228 219 211 212 213 203 200 197 200 209 207 200 198 194 195 198 200 185 175 177 176 165 161 164 172 165 160 156 150 147 149 149 142 141 143 160 159 156 176
105 123 137 137 151 165 231 267 241 231 226 214 217 218 215 213 212 209 217 223 215 200 196 198 200 203 198 185 181 169 173 161 160 163 171 171 166 167 165 161 157 162 163 155 162 176 170 170 187
170 182 158 158 201 179 192 267 293 262 257 226 228 238 231 220 212 203 212 219 215 209 207 201 199 204 196 188 183 180 167 162 164 163 167 163 165 166 162 155 169 177 175 167 171 185 185 183 194
Height
1518 1519 1520 1522 1525 1532 1530 1521 1514 1512 1512 1510 1510 1511 1512 1516 1520 1525 1521 1520 1522 1524 1527 1530 1532 1534 1536 1537 1539 1540 1541 1542 1543 1544 1545 1545 1546 1547 1547 1548 1548 1549 1549 1549 1549 1549 1549 1549 1549
1517 1519 1521 1521 1528 1536 1527 1517 1513 1509 1508 1509 1510 1510 1512 1515 1516 1518 1518 1520 1522 1525 1527 1529 1532 1534 1536 1537 1539 1540 1541 1543 1544 1545 1545 1546 1547 1548 1548 1549 1549 1550 1550 1550 1550 1550 1550 1550 1550
1517 1518 1520 1521 1526 1525 1519 1511 1509 1507 1507 1508 1509 1511 1512 1515 1516 1517 1518 1520 1523 1525 1527 1529 1531 1534 1536 1537 1539 1540 1542 1543 1544 1545 1546 1547 1548 1548 1549 1550 1550 1550 1551 1551 1551 1551 1551 1551 1551
1516 1519 1519 1522 1519 1513 1510 1507 1506 1506 1507 1508 1509 1512 1513 1516 1516 1517 1518 1520 1522 1524 1527 1529 1531 1533 1535 1537 1539 1540 1542 1543 1544 1545 1546 1547 1548 1549 1550 1550 1551 1551 1551 1551 1552 1552 1552 1551 1551
1515 1516 1520 1520 1514 1510 1507 1506 1506 1507 1507 1508 1509 1511 1513 1515 1515 1516 1518 1520 1521 1524 1527 1529 1531 1533 1535 1537 1539 1540 1542 1543 1545 1546 1547 1548 1548 1549 1550 1551 1551 1551 1552 1552 1552 1552 1552 1552 1552
1513 1514 1520 1517 1511 1508 1507 1506 1506 1507 1507 1508 1509 1511 1513 1514 1514 1516 1517 1519 1521 1523 1526 1528 1531 1533 1535 1536 1538 1540 1541 1543 1544 1546 1547 1548 1549 1549 1550 1551 1551 1552 1552 1552 1553 1553 1553 1553 1553
1511 1512 1514 1512 1511 1509 1506 1506 1507 1507 1507 1508 1508 1510 1512 1513 1514 1515 1517 1519 1521 1523 1525 1528 1530 1532 1534 1536 1538 1540 1541 1543 1544 1545 1546 1548 1549 1550 1550 1551 1551 1552 1552 1552 1553 1553 1553 1553 1553
1507 1509 1510 1510 1509 1507 1505 1505 1505 1507 1507 1508 1508 1508 1510 1512 1513 1515 1517 1519 1520 1523 1525 1527 1529 1531 1533 1535 1537 1539 1541 1542 1544 1545 1546 1547 1548 1549 1550 1551 1551 1552 1552 1552 1553 1553 1553 1553 1553
1505 1509 1506 1504 1504 1504 1503 1504 1505 1506 1506 1506 1506 1507 1508 1510 1512 1514 1516 1518 1519 1521 1524 1526 1528 1530 1532 1534 1536 1538 1540 1542 1543 1545 1546 1547 1548 1549 1550 1551 1551 1552 1552 1552 1552 1552 1553 1553 1552
1502 1504 1498 1499 1499 1501 1502 1502 1504 1505 1504 1504 1504 1505 1507 1508 1510 1512 1513 1515 1518 1519 1522 1525 1527 1529 1531 1533 1534 1537 1539 1541 1542 1544 1545 1546 1547 1548 1549 1550 1551 1551 1552 1552 1552 1552 1552 1552 1552
1499 1499 1497 1497 1497 1499 1500 1501 1502 1502 1504 1502 1502 1503 1505 1507 1509 1511 1513 1514 1516 1519 1521 1523 1526 1527 1529 1531 1533 1535 1537 1539 1541 1543 1544 1546 1547 1548 1549 1549 1550 1551 1551 1551 1551 1551 1551 1551 1551
1498 1497 1497 1496 1497 1497 1499 1499 1500 1500 1500 1500 1501 1502 1503 1505 1507 1509 1511 1514 1515 1517 1520 1522 1524 1526 1528 1530 1532 1534 1535 1538 1540 1542 1543 1544 1545 1546 1547 1548 1549 1550 1550 1550 1550 1551 1551 1550 1550
1497 1496 1496 1496 1496 1497 1497 1498 1498 1498 1497 1498 1499 1500 1501 1503 1505 1508 1510 1512 1514 1516 1518 1521 1522 1524 1526 1529 1531 1532 1534 1536 1538 1540 1542 1543 1544 1545 1546 1547 1548 1549 1549 1549 1549 1550 1550 1549 1549
1495 1495 1495 1495 1495 1496 1496 1496 1497 1495 1496 1496 1498 1499 1500 1501 1503 1506 1508 1509 1512 1514 1517 1519 1521 1523 1525 1527 1529 1531 1533 1535 1537 1538 1540 1541 1543 1544 1545 1546 1547 1547 1548 1548 1548 1549 1549 1548 1548
1494 1496 1495 1494 1494 1494 1495 1496 1493 1494 1495 1495 1496 1497 1499 1500 1502 1504 1505 1507 1510 1513 1515 1518 1519 1521 1523 1525 1527 1530 1532 1533 1535 1536 1538 1539 1541 1542 1544 1544 1545 1546 1546 1547 1547 1547 1547 1547 1546
1494 1496 1498 1494 1493 1493 1497 1495 1490 1492 1494 1494 1495 1496 1497 1499 1500 1503 1505 1506 1509 1511 1514 1516 1518 1520 1522 1524 1525 1527 1530 1531 1533 1534 1536 1537 1539 1540 1541 1542 1543 1544 1544 1545 1545 1545 1545 1545 1544
1495 1497 1496 1494 1490 1492 1493 1492 1489 1490 1491 1492 1494 1495 1495 1497 1500 1502 1504 1506 1508 1510 1512 1514 1516 1518 1520 1522 1524 1526 1528 1530 1531 1533 1534 1536 1537 1538 1539 1540 1541 1542 1542 1543 1543 1543 1543 1543 1542
1495 1495 1493 1492 1489 1490 1491 1489 1488 1489 1490 1491 1492 1493 1494 1496 1498 1501 1503 1504 1506 1508 1510 1513 1515 1517 1518 1520 1522 1523 1525 1527 1529 1531 1532 1533 1535 1536 1537 1538 1539 1540 1540 1540 1541 1541 1541 1541 1540
1489 1490 1490 1489 1487 1488 1488 1488 1487 1487 1489 1489 1490 1492 1493 1494 1497 1499 1501 1502 1504 1506 1508 1510 1512 1514 1516 1518 1519 1520 1522 1524 1526 1528 1530 1531 1533 1534 1535 1536 1536 1537 1538 1538 1538 1539 1539 1538 1538
1488 1489 1490 1488 1486 1488 1488 1487 1486 1486 1486 1487 1488 1489 1491 1493 1495 1497 1499 1501 1502 1503 1505 1507 1509 1511 1513 1515 1517 1518 1520 1522 1523 1525 1527 1528 1530 1532 1533 1533 1533 1534 1535 1535 1535 1536 1536 1536 1536
1486 1487 1487 1488 1486 1486 1488 1489 1486 1484 1485 1486 1486 1487 1488 1490 1492 1494 1496 1498 1500 1501 1503 1505 1507 1509 1511 1513 1515 1516 1517 1519 1520 1521 1523 1525 1527 1529 1529 1530 1531 1531 1532 1532 1532 1533 1533 1533 1533
1485 1482 1484 1485 1490 1492 1490 1494 1486 1483 1484 1484 1484 1484 1485 1487 1489 1491 1493 1495 1497 1499 1501 1503 1505 1506 1508 1510 1511 1513 1513 1514 1516 1518 1520 1522 1524 1525 1527 1528 1528 1529 1529 1530 1530 1530 1530 1531 1530
1482 1480 1482 1485 1489 1493 1491 1494 1487 1482 1483 1482 1481 1482 1483 1485 1487 1489 1491 1493 1495 1497 1499 1500 1502 1503 1505 1507 1509 1510 1511 1512 1514 1515 1517 1519 1520 1522 1523 1525 1525 1526 1527 1527 1527 1528 1528 1528 1528
1480 1482 1484 1488 1491 1494 1490 1493 1489 1482 1477 1477 1478 1479 1480 1482 1484 1487 1489 1491 1492 1494 1496 1497 1498 1500 1501 1503 1505 1507 1508 1509 1510 1512 1513 1515 1517 1518 1520 1521 1522 1524 1524 1524 1524 1525 1525 1525 1525
1482 1487 1494 1496 1499 1495 1488 1490 1486 1475 1473 1473 1474 1476 1477 1479 1481 1483 1485 1487 1489 1491 1492 1494 1495 1497 1498 1500 1502 1503 1505 1506 1508 1509 1510 1512 1513 1515 1516 1517 1519 1520 1521 1522 1522 1521 1522 1522 1522
1484 1487 1494 1496 1497 1494 1489 1488 1480 1473 1471 1471 1473 1474 1476 1477 1479 1480 1482 1484 1486 1488 1489 1491 1493 1494 1495 1497 1498 1500 1502 1503 1505 1506 1508 1509 1511 1512 1513 1514 1515 1517 1517 1518 1518 1518 1519 1519 1519
1485 1488 1489 1494 1496 1495 1490 1485 1477 1471 1470 1471 1472 1473 1474 1475 1477 1478 1480 1482 1483 1485 1486 1488 1489 1491 1493 1494 1495 1496 1498 1500 1502 1503 1505 1506 1508 1509 1510 1511 1512 1513 1514 1515 1515 1515 1515 1515 1515
1485 1486 1492 1494 1495 1492 1489 1487 1481 1474 1472 1471 1471 1471 1472 1473 1474 1476 1478 1479 1480 1482 1483 1485 1486 1488 1490 1491 1492 1493 1495 1497 1499 1500 1501 1503 1504 1505 1506 1507 1509 1510 1511 1511 1512 1512 1512 1512 1511
1488 1489 1490 1494 1494 1495 1492 1485 1474 1471 1469 1469 1469 1469 1470 1471 1472 1473 1475 1477 1478 1479 1481 1482 1483 1485 1486 1487 1489 1490 1492 1493 1495 1497 1498 1500 1501 1502 1503 1504 1505 1506 1508 1508 1509 1509 1508 1508 1508
1487 1488 1490 1493 1496 1496 1496 1485 1470 1470 1467 1467 1467 1468 1468 1468 1469 1471 1473 1474 1475 1476 1478 1479 1480 1482 1483 1484 1486 1487 1488 1490 1492 1493 1495 1496 1498 1499 1500 1501 1502 1503 1504 1505 1505 1505 1505 1505 1505